When you browse on this site, cookies collect data to enhance your experience and personalize the content and advertising you see.
Visit our Privacy Policy to learn more. By continuing to use the site, you agree to this use of cookies and data.
  • In Hungary
  • List of Countries
  • For 7 days
  • Water Temperature
  • Weather Map
  • News
  • Weather Widgets
  • user-avatar
    Login

    Hourly Weather Myczkowce

    Today, 18 November, Monday

    Time Temperature Precipitation Wind Pressure Humidity
    00:00 +9°C° 0 mm 2 mps 728 mmHg 71%
    01:00 +9°C° 0 mm 2 mps 728 mmHg 69%
    02:00 +9°C° 0 mm 2 mps 728 mmHg 70%
    03:00 +8°C° 0 mm 2 mps 728 mmHg 72%
    04:00 +8°C° 0 mm 2 mps 727 mmHg 74%
    05:00 +8°C° 0 mm 2 mps 727 mmHg 74%
    06:00 +8°C° 0 mm 2 mps 727 mmHg 75%
    07:00 +8°C° 0 mm 2 mps 727 mmHg 74%
    08:00 +10°C° 0 mm 2 mps 728 mmHg 69%
    09:00 +13°C° 0 mm 2 mps 728 mmHg 65%
    10:00 +14°C° 0 mm 2 mps 728 mmHg 60%
    11:00 +14°C° 0 mm 3 mps 728 mmHg 59%
    12:00 +14°C° 0 mm 3 mps 728 mmHg 58%
    13:00 +14°C° 0 mm 4 mps 728 mmHg 58%
    14:00 +13°C° 0 mm 3 mps 728 mmHg 63%
    15:00 +12°C° 0 mm 3 mps 728 mmHg 68%
    16:00 +11°C° 0 mm 3 mps 728 mmHg 73%
    17:00 +11°C° 0 mm 3 mps 729 mmHg 76%
    18:00 +11°C° 0 mm 3 mps 729 mmHg 79%
    19:00 +11°C° 0 mm 3 mps 730 mmHg 82%
    20:00 +10°C° 0 mm 3 mps 730 mmHg 83%
    21:00 +10°C° 0 mm 4 mps 731 mmHg 85%
    22:00 +10°C° 0 mm 4 mps 731 mmHg 86%
    23:00 +10°C° 0 mm 4 mps 732 mmHg 83%

    Tomorrow, 19 November, Tuesday

    Time Temperature Precipitation Wind Pressure Humidity
    00:00 +8°C° 0 mm 4 mps 732 mmHg 80%
    01:00 +7°C° 0 mm 4 mps 733 mmHg 78%
    02:00 +8°C° 0 mm 3 mps 733 mmHg 77%
    03:00 +8°C° 0 mm 3 mps 733 mmHg 77%
    04:00 +7°C° 0 mm 3 mps 733 mmHg 77%
    05:00 +7°C° 0 mm 3 mps 733 mmHg 77%
    06:00 +7°C° 0 mm 2 mps 733 mmHg 78%
    07:00 +6°C° 0 mm 2 mps 733 mmHg 79%
    08:00 +8°C° 0 mm 2 mps 734 mmHg 72%
    09:00 +10°C° 0 mm 2 mps 734 mmHg 64%
    10:00 +12°C° 0 mm 2 mps 734 mmHg 57%
    11:00 +13°C° 0 mm 2 mps 734 mmHg 55%
    12:00 +14°C° 0 mm 2 mps 734 mmHg 52%
    13:00 +14°C° 0 mm 2 mps 734 mmHg 50%
    14:00 +13°C° 0 mm 1 mps 733 mmHg 55%
    15:00 +11°C° 0 mm 1 mps 733 mmHg 61%
    16:00 +10°C° 0 mm 1 mps 733 mmHg 67%
    17:00 +10°C° 0 mm 1 mps 733 mmHg 67%
    18:00 +9°C° 0 mm 1 mps 733 mmHg 66%
    19:00 +9°C° 0 mm 1 mps 733 mmHg 66%
    20:00 +9°C° 0 mm 1 mps 733 mmHg 67%
    21:00 +9°C° 0 mm 1 mps 733 mmHg 69%
    22:00 +9°C° 0 mm 1 mps 733 mmHg 70%
    23:00 +9°C° 0 mm 1 mps 733 mmHg 73%

    Day after tomorrow, 20 November, Wednesday

    Time Temperature Precipitation Wind Pressure Humidity
    00:00 +9°C° 0 mm 1 mps 733 mmHg 76%
    01:00 +9°C° 0 mm 1 mps 733 mmHg 78%
    02:00 +9°C° 0 mm 1 mps 732 mmHg 79%
    03:00 +9°C° 0 mm 1 mps 732 mmHg 80%
    04:00 +9°C° 0 mm 1 mps 732 mmHg 81%
    05:00 +9°C° 0 mm 1 mps 731 mmHg 81%
    06:00 +8°C° 0 mm 1 mps 731 mmHg 82%
    07:00 +8°C° 0 mm 1 mps 731 mmHg 82%
    08:00 +9°C° 0 mm 1 mps 731 mmHg 79%
    09:00 +10°C° 0 mm 1 mps 731 mmHg 76%
    10:00 +12°C° 0 mm 1 mps 731 mmHg 73%
    11:00 +12°C° 0 mm 1 mps 731 mmHg 73%
    12:00 +12°C° 0 mm 2 mps 730 mmHg 73%
    13:00 +13°C° 0 mm 2 mps 730 mmHg 74%
    14:00 +12°C° 0 mm 2 mps 730 mmHg 79%
    15:00 +10°C° 0 mm 2 mps 729 mmHg 83%
    16:00 +9°C° 0 mm 2 mps 729 mmHg 88%
    17:00 +9°C° 0 mm 2 mps 729 mmHg 88%
    18:00 +9°C° 0 mm 2 mps 729 mmHg 88%
    19:00 +9°C° 0 mm 2 mps 729 mmHg 87%
    20:00 +9°C° 0 mm 2 mps 729 mmHg 87%
    21:00 +9°C° 0 mm 2 mps 729 mmHg 86%
    22:00 +9°C° 0 mm 2 mps 729 mmHg 86%
    23:00 +9°C° 0 mm 2 mps 729 mmHg 86%

    21 November, Thursday

    Time Temperature Precipitation Wind Pressure Humidity
    00:00 +9°C° 0 mm 2 mps 729 mmHg 87%
    01:00 +10°C° 0 mm 1 mps 729 mmHg 88%
    02:00 +10°C° 0.2 mm 1 mps 729 mmHg 89%
    03:00 +10°C° 0.2 mm 1 mps 729 mmHg 90%
    04:00 +10°C° 0.2 mm 1 mps 729 mmHg 91%
    05:00 +9°C° 0.1 mm 2 mps 729 mmHg 91%
    06:00 +9°C° 0.1 mm 2 mps 729 mmHg 92%
    07:00 +9°C° 0.1 mm 2 mps 730 mmHg 92%
    08:00 +10°C° 0 mm 2 mps 730 mmHg 87%
    09:00 +10°C° 0 mm 3 mps 730 mmHg 82%
    10:00 +11°C° 0 mm 3 mps 730 mmHg 78%
    11:00 +12°C° 0.1 mm 3 mps 730 mmHg 75%
    12:00 +12°C° 0.1 mm 3 mps 730 mmHg 72%
    13:00 +13°C° 0.1 mm 3 mps 731 mmHg 70%
    14:00 +12°C° 0.1 mm 3 mps 731 mmHg 76%
    15:00 +10°C° 0.1 mm 2 mps 731 mmHg 81%
    16:00 +9°C° 0.1 mm 2 mps 731 mmHg 87%
    17:00 +9°C° 0 mm 2 mps 731 mmHg 89%
    18:00 +8°C° 0 mm 2 mps 731 mmHg 90%
    19:00 +8°C° 0 mm 2 mps 731 mmHg 92%
    20:00 +8°C° 0 mm 2 mps 732 mmHg 92%
    21:00 +7°C° 0 mm 2 mps 732 mmHg 92%
    22:00 +7°C° 0 mm 2 mps 732 mmHg 92%
    23:00 +7°C° 0 mm 2 mps 732 mmHg 92%

    22 November, Friday

    Time Temperature Precipitation Wind Pressure Humidity
    00:00 +7°C° 0 mm 2 mps 732 mmHg 92%
    01:00 +7°C° 0 mm 2 mps 732 mmHg 92%
    02:00 +7°C° 0 mm 2 mps 732 mmHg 92%
    03:00 +7°C° 0 mm 2 mps 732 mmHg 92%
    04:00 +6°C° 0 mm 2 mps 732 mmHg 92%
    05:00 +7°C° 0 mm 1 mps 732 mmHg 92%
    06:00 +7°C° 0 mm 1 mps 732 mmHg 92%
    07:00 +7°C° 0 mm 1 mps 732 mmHg 92%
    08:00 +8°C° 0 mm 1 mps 732 mmHg 87%
    09:00 +10°C° 0 mm 1 mps 733 mmHg 81%
    10:00 +11°C° 0 mm 1 mps 733 mmHg 76%
    11:00 +11°C° 0 mm 1 mps 732 mmHg 74%
    12:00 +12°C° 0 mm 1 mps 732 mmHg 72%
    13:00 +12°C° 0 mm 1 mps 732 mmHg 70%
    14:00 +11°C° 0 mm 1 mps 732 mmHg 76%
    15:00 +10°C° 0 mm 1 mps 731 mmHg 82%
    16:00 +8°C° 0 mm 1 mps 731 mmHg 88%
    17:00 +8°C° 0 mm 1 mps 731 mmHg 88%
    18:00 +7°C° 0 mm 1 mps 731 mmHg 89%
    19:00 +7°C° 0 mm 1 mps 731 mmHg 89%
    20:00 +7°C° 0 mm 1 mps 731 mmHg 88%
    21:00 +7°C° 0 mm 1 mps 731 mmHg 88%
    22:00 +7°C° 0 mm 1 mps 731 mmHg 87%
    23:00 +7°C° 0 mm 1 mps 731 mmHg 87%

    23 November, Saturday

    Time Temperature Precipitation Wind Pressure Humidity
    00:00 +7°C° 0 mm 1 mps 730 mmHg 88%
    01:00 +7°C° 0 mm 1 mps 730 mmHg 88%
    02:00 +7°C° 0 mm 1 mps 730 mmHg 88%
    03:00 +7°C° 0 mm 1 mps 730 mmHg 87%
    04:00 +7°C° 0 mm 1 mps 730 mmHg 86%
    05:00 +7°C° 0.1 mm 1 mps 730 mmHg 87%
    06:00 +7°C° 0.1 mm 1 mps 729 mmHg 88%
    07:00 +7°C° 0.1 mm 1 mps 729 mmHg 89%
    08:00 +7°C° 0 mm 2 mps 729 mmHg 87%
    09:00 +7°C° 0 mm 2 mps 729 mmHg 84%
    10:00 +8°C° 0 mm 2 mps 729 mmHg 82%
    11:00 +8°C° 0 mm 3 mps 729 mmHg 81%
    12:00 +9°C° 0 mm 3 mps 729 mmHg 80%
    13:00 +9°C° 0 mm 3 mps 728 mmHg 79%
    14:00 +8°C° 0 mm 3 mps 728 mmHg 82%
    15:00 +7°C° 0 mm 2 mps 728 mmHg 86%
    16:00 +7°C° 0 mm 2 mps 728 mmHg 89%
    17:00 +6°C° 0 mm 2 mps 728 mmHg 90%
    18:00 +6°C° 0 mm 2 mps 728 mmHg 91%
    19:00 +6°C° 0 mm 2 mps 728 mmHg 92%
    20:00 +6°C° 0 mm 2 mps 728 mmHg 91%
    21:00 +6°C° 0 mm 2 mps 728 mmHg 90%
    22:00 +5°C° 0 mm 2 mps 728 mmHg 90%
    23:00 +5°C° 0 mm 2 mps 728 mmHg 89%
    Show more